Time,TemperatureF,DewpointF,PressureIn,WindDirection,WindDirectionDegrees,WindSpeedMPH,WindSpeedGustMPH,Humidity,HourlyPrecipIn,Conditions,Clouds,dailyrainin,SolarRadiationWatts/m^2,SoftwareType,DateUTC
2013-08-10 00:01:00,76.2,66.9,30.00,NW,317,4.0,5.0,73,0.00,,---,0.00,0.00,VWS V14.01,2013-08-10 05:01:00,
2013-08-10 00:06:00,76.3,67.0,30.01,NW,319,3.0,3.0,73,0.00,,---,0.00,0.00,VWS V14.01,2013-08-10 05:06:00,
2013-08-10 00:11:00,76.4,67.1,30.01,NW,321,2.0,5.0,73,0.00,,---,0.00,0.00,VWS V14.01,2013-08-10 05:11:00,
2013-08-10 00:16:00,76.4,67.1,30.01,NNW,329,4.0,5.0,73,0.00,,---,0.00,0.00,VWS V14.01,2013-08-10 05:16:00,
2013-08-10 00:21:00,76.4,67.5,30.01,NW,318,3.0,5.0,74,0.00,,---,0.00,0.00,VWS V14.01,2013-08-10 05:21:00,
2013-08-10 00:26:00,76.3,67.4,30.01,NW,325,2.0,6.0,74,0.00,,---,0.00,0.00,VWS V14.01,2013-08-10 05:26:00,
2013-08-10 00:31:00,76.3,67.4,30.02,NNW,344,4.0,4.0,74,0.00,,---,0.00,0.00,VWS V14.01,2013-08-10 05:31:00,
2013-08-10 00:36:00,76.2,67.3,30.02,NNW,330,2.0,4.0,74,0.00,,---,0.00,0.00,VWS V14.01,2013-08-10 05:36:00,
2013-08-10 00:41:00,76.1,67.2,30.02,NNW,333,1.0,4.0,74,0.00,,---,0.00,0.00,VWS V14.01,2013-08-10 05:41:00,
2013-08-10 00:46:00,75.9,67.0,30.02,NNW,334,3.0,6.0,74,0.00,,---,0.00,0.00,VWS V14.01,2013-08-10 05:46:00,
2013-08-10 00:51:00,75.7,67.2,30.02,NW,325,4.0,6.0,75,0.00,,---,0.00,0.00,VWS V14.01,2013-08-10 05:51:00,
2013-08-10 00:56:00,75.5,67.0,30.02,NNW,336,2.0,6.0,75,0.00,,---,0.00,0.00,VWS V14.01,2013-08-10 05:56:00,
2013-08-10 01:01:00,75.3,66.8,30.03,NNW,332,3.0,7.0,75,0.00,,---,0.00,0.00,VWS V14.01,2013-08-10 06:01:00,
2013-08-10 01:06:00,75.2,67.1,30.03,NNW,346,2.0,6.0,76,0.00,,---,0.00,0.00,VWS V14.01,2013-08-10 06:06:00,
2013-08-10 01:11:00,75.1,67.0,30.03,NNW,344,3.0,6.0,76,0.00,,---,0.00,0.00,VWS V14.01,2013-08-10 06:11:00,
2013-08-10 01:16:00,75.1,67.4,30.02,NNW,338,2.0,6.0,77,0.00,,---,0.00,0.00,VWS V14.01,2013-08-10 06:16:00,
2013-08-10 01:21:00,74.9,67.6,30.03,North,351,7.0,8.0,78,0.00,,---,0.00,0.00,VWS V14.01,2013-08-10 06:21:00,
2013-08-10 01:26:00,74.9,67.6,30.03,NNW,343,4.0,8.0,78,0.00,,---,0.00,0.00,VWS V14.01,2013-08-10 06:26:00,
2013-08-10 01:31:00,74.7,67.8,30.03,NNW,340,3.0,8.0,79,0.00,,---,0.00,0.00,VWS V14.01,2013-08-10 06:31:00,
2013-08-10 01:36:00,74.6,67.7,30.03,NNW,329,4.0,8.0,79,0.00,,---,0.00,0.00,VWS V14.01,2013-08-10 06:36:00,
2013-08-10 01:41:00,74.4,67.8,30.03,North,5,3.0,8.0,80,0.00,,---,0.00,0.00,VWS V14.01,2013-08-10 06:41:00,
2013-08-10 01:46:00,74.3,67.7,30.03,North,9,3.0,8.0,80,0.00,,---,0.00,0.00,VWS V14.01,2013-08-10 06:46:00,
2013-08-10 01:51:00,74.2,67.6,30.03,NNW,343,3.0,8.0,80,0.00,,---,0.00,0.00,VWS V14.01,2013-08-10 06:51:00,
2013-08-10 01:56:00,74.1,67.9,30.03,North,355,5.0,8.0,81,0.00,,---,0.00,0.00,VWS V14.01,2013-08-10 06:56:00,
2013-08-10 02:01:00,74.0,67.8,30.03,North,360,3.0,8.0,81,0.00,,---,0.00,0.00,VWS V14.01,2013-08-10 07:01:00,
2013-08-10 02:06:00,73.9,67.7,30.03,NNW,344,5.0,6.0,81,0.00,,---,0.00,0.00,VWS V14.01,2013-08-10 07:06:00,
2013-08-10 02:11:00,73.7,67.5,30.03,NNW,342,4.0,7.0,81,0.00,,---,0.00,0.00,VWS V14.01,2013-08-10 07:11:00,
2013-08-10 02:16:00,73.6,67.8,30.03,North,5,5.0,8.0,82,0.00,,---,0.00,0.00,VWS V14.01,2013-08-10 07:16:00,
2013-08-10 02:21:00,73.5,67.7,30.03,NNE,19,6.0,8.0,82,0.00,,---,0.00,0.00,VWS V14.01,2013-08-10 07:21:00,
2013-08-10 02:26:00,73.4,67.6,30.03,NNE,19,3.0,8.0,82,0.00,,---,0.00,0.00,VWS V14.01,2013-08-10 07:26:00,
2013-08-10 02:31:00,73.3,67.5,30.03,NNE,13,4.0,8.0,82,0.00,,---,0.00,0.00,VWS V14.01,2013-08-10 07:31:00,
2013-08-10 02:36:00,73.2,67.4,30.03,NNW,332,4.0,7.0,82,0.00,,---,0.00,0.00,VWS V14.01,2013-08-10 07:36:00,
2013-08-10 02:41:00,73.1,67.3,30.03,North,5,3.0,7.0,82,0.00,,---,0.00,0.00,VWS V14.01,2013-08-10 07:41:00,
2013-08-10 02:46:00,73.0,67.2,30.04,North,355,4.0,7.0,82,0.00,,---,0.00,0.00,VWS V14.01,2013-08-10 07:46:00,
2013-08-10 02:51:00,72.9,67.4,30.04,North,10,2.0,7.0,83,0.00,,---,0.00,0.00,VWS V14.01,2013-08-10 07:51:00,
2013-08-10 02:56:00,72.8,67.3,30.04,North,5,4.0,7.0,83,0.00,,---,0.00,0.00,VWS V14.01,2013-08-10 07:56:00,
2013-08-10 03:01:00,72.9,67.4,30.03,NNE,13,6.0,8.0,83,0.00,,---,0.00,0.00,VWS V14.01,2013-08-10 08:01:00,
2013-08-10 03:05:00,72.8,67.3,30.03,NNE,29,6.0,7.0,83,0.00,,---,0.00,0.00,VWS V14.01,2013-08-10 08:05:00,
2013-08-10 03:10:00,72.8,67.3,30.03,NNW,332,4.0,8.0,83,0.00,,---,0.00,0.00,VWS V14.01,2013-08-10 08:10:00,
2013-08-10 03:15:00,72.8,67.3,30.04,North,355,4.0,8.0,83,0.00,,---,0.00,0.00,VWS V14.01,2013-08-10 08:15:00,
2013-08-10 03:20:00,72.8,67.3,30.04,NNE,22,5.0,8.0,83,0.00,,---,0.00,0.00,VWS V14.01,2013-08-10 08:20:00,
2013-08-10 03:25:00,72.8,67.3,30.03,NNE,19,3.0,8.0,83,0.00,,---,0.00,0.00,VWS V14.01,2013-08-10 08:25:00,
2013-08-10 03:30:00,72.7,67.2,30.03,North,5,5.0,9.0,83,0.00,,---,0.00,0.00,VWS V14.01,2013-08-10 08:30:00,
2013-08-10 03:35:00,72.7,67.2,30.03,NNE,15,6.0,8.0,83,0.00,,---,0.00,0.00,VWS V14.01,2013-08-10 08:35:00,
2013-08-10 03:40:00,72.6,67.5,30.03,North,351,6.0,8.0,84,0.00,,---,0.00,0.00,VWS V14.01,2013-08-10 08:40:00,
2013-08-10 03:45:00,72.5,67.4,30.04,North,360,3.0,8.0,84,0.00,,---,0.00,0.00,VWS V14.01,2013-08-10 08:45:00,
2013-08-10 03:50:00,72.3,67.2,30.03,NNW,331,6.0,8.0,84,0.00,,---,0.00,0.00,VWS V14.01,2013-08-10 08:50:00,
2013-08-10 03:55:00,72.2,67.1,30.03,NNW,344,6.0,8.0,84,0.00,,---,0.00,0.00,VWS V14.01,2013-08-10 08:55:00,
2013-08-10 04:00:00,72.1,67.0,30.03,NNE,20,4.0,8.0,84,0.00,,---,0.00,0.00,VWS V14.01,2013-08-10 09:00:00,
2013-08-10 04:05:00,72.0,67.2,30.03,North,360,6.0,10.0,85,0.00,,---,0.00,0.00,VWS V14.01,2013-08-10 09:05:00,
2013-08-10 04:10:00,71.9,67.2,30.03,North,351,7.0,10.0,85,0.00,,---,0.00,0.00,VWS V14.01,2013-08-10 09:10:00,
2013-08-10 04:15:00,71.8,67.1,30.03,North,350,5.0,10.0,85,0.00,,---,0.00,0.00,VWS V14.01,2013-08-10 09:15:00,
2013-08-10 04:20:00,71.7,66.9,30.03,NNE,24,3.0,10.0,85,0.00,,---,0.00,0.00,VWS V14.01,2013-08-10 09:20:00,
2013-08-10 04:25:00,71.6,66.9,30.03,North,355,4.0,10.0,85,0.00,,---,0.00,0.00,VWS V14.01,2013-08-10 09:25:00,
2013-08-10 04:30:00,71.5,66.8,30.03,North,360,5.0,10.0,85,0.00,,---,0.00,0.00,VWS V14.01,2013-08-10 09:30:00,
2013-08-10 04:35:00,71.5,66.8,30.04,NNW,331,4.0,8.0,85,0.00,,---,0.00,0.00,VWS V14.01,2013-08-10 09:35:00,
2013-08-10 04:40:00,71.4,67.0,30.04,NNW,328,5.0,8.0,86,0.00,,---,0.00,0.00,VWS V14.01,2013-08-10 09:40:00,
2013-08-10 04:45:00,71.3,66.9,30.04,NNW,333,6.0,8.0,86,0.00,,---,0.00,0.00,VWS V14.01,2013-08-10 09:45:00,
2013-08-10 04:50:00,71.2,66.8,30.04,North,5,4.0,8.0,86,0.00,,---,0.00,0.00,VWS V14.01,2013-08-10 09:50:00,
2013-08-10 04:55:00,71.1,66.7,30.04,NNE,14,4.0,9.0,86,0.00,,---,0.00,0.00,VWS V14.01,2013-08-10 09:55:00,
2013-08-10 05:00:00,71.1,66.7,30.05,North,355,4.0,9.0,86,0.00,,---,0.00,0.00,VWS V14.01,2013-08-10 10:00:00,
2013-08-10 05:05:00,71.0,66.6,30.05,NNW,329,6.0,7.0,86,0.00,,---,0.00,0.00,VWS V14.01,2013-08-10 10:05:00,
2013-08-10 05:10:00,71.0,66.6,30.05,North,5,4.0,8.0,86,0.00,,---,0.00,0.00,VWS V14.01,2013-08-10 10:10:00,
2013-08-10 05:15:00,71.0,66.9,30.05,NNW,347,4.0,8.0,87,0.00,,---,0.00,0.00,VWS V14.01,2013-08-10 10:15:00,
2013-08-10 05:20:00,71.0,66.9,30.05,NW,311,6.0,10.0,87,0.00,,---,0.00,0.00,VWS V14.01,2013-08-10 10:20:00,
2013-08-10 05:25:00,70.9,66.8,30.05,North,5,5.0,10.0,87,0.00,,---,0.00,0.00,VWS V14.01,2013-08-10 10:25:00,
2013-08-10 05:30:00,70.8,66.7,30.05,NW,323,4.0,10.0,87,0.00,,---,0.00,0.00,VWS V14.01,2013-08-10 10:30:00,
2013-08-10 05:35:00,70.7,66.3,30.05,NNE,12,3.0,10.0,86,0.00,,---,0.00,0.00,VWS V14.01,2013-08-10 10:35:00,
2013-08-10 05:40:00,70.6,66.2,30.05,NNE,24,4.0,10.0,86,0.00,,---,0.00,0.00,VWS V14.01,2013-08-10 10:40:00,
2013-08-10 05:45:00,70.6,66.2,30.05,North,5,4.0,10.0,86,0.00,,---,0.00,0.00,VWS V14.01,2013-08-10 10:45:00,
2013-08-10 05:50:00,70.6,66.6,30.06,NNW,332,5.0,10.0,87,0.00,,---,0.00,0.00,VWS V14.01,2013-08-10 10:50:00,
2013-08-10 05:55:00,70.5,66.4,30.06,North,9,6.0,10.0,87,0.00,,---,0.00,0.00,VWS V14.01,2013-08-10 10:55:00,
2013-08-10 06:00:00,70.4,66.3,30.06,North,5,6.0,10.0,87,0.00,,---,0.00,0.00,VWS V14.01,2013-08-10 11:00:00,
2013-08-10 06:05:00,70.4,66.3,30.06,NNE,25,4.0,7.0,87,0.00,,---,0.00,0.00,VWS V14.01,2013-08-10 11:05:00,
2013-08-10 06:10:00,70.3,66.2,30.06,NNE,30,4.0,7.0,87,0.00,,---,0.00,0.00,VWS V14.01,2013-08-10 11:10:00,
2013-08-10 06:15:00,70.2,66.2,30.07,NE,50,2.0,7.0,87,0.00,,---,0.00,0.00,VWS V14.01,2013-08-10 11:15:00,
2013-08-10 06:20:00,70.1,66.1,30.07,East,86,5.0,7.0,87,0.00,,---,0.00,0.00,VWS V14.01,2013-08-10 11:20:00,
2013-08-10 06:25:00,70.1,66.1,30.06,NNE,19,2.0,7.0,87,0.00,,---,0.00,0.00,VWS V14.01,2013-08-10 11:25:00,
2013-08-10 06:30:00,70.0,66.0,30.06,NNE,27,5.0,7.0,87,0.00,,---,0.00,0.00,VWS V14.01,2013-08-10 11:30:00,
2013-08-10 06:35:00,69.9,65.9,30.06,NE,46,7.0,8.0,87,0.00,,---,0.00,0.00,VWS V14.01,2013-08-10 11:35:00,
2013-08-10 06:40:00,69.9,65.9,30.06,NNE,17,3.0,8.0,87,0.00,,---,0.00,0.00,VWS V14.01,2013-08-10 11:40:00,
2013-08-10 06:45:00,69.9,65.9,30.06,NE,36,6.0,8.0,87,0.00,,---,0.00,0.00,VWS V14.01,2013-08-10 11:45:00,
2013-08-10 06:50:00,69.9,65.9,30.06,NNE,30,3.0,8.0,87,0.00,,---,0.00,0.00,VWS V14.01,2013-08-10 11:50:00,
2013-08-10 06:55:00,70.0,66.0,30.06,NNW,344,4.0,8.0,87,0.00,,---,0.00,0.00,VWS V14.01,2013-08-10 11:55:00,
2013-08-10 07:00:00,69.9,65.5,30.06,North,5,4.0,8.0,86,0.00,,---,0.00,5.00,VWS V14.01,2013-08-10 12:00:00,
2013-08-10 07:05:00,69.8,65.4,30.06,North,360,6.0,6.0,86,0.00,,---,0.00,11.00,VWS V14.01,2013-08-10 12:05:00,
2013-08-10 07:10:00,69.8,65.4,30.06,North,5,4.0,7.0,86,0.00,,---,0.00,14.00,VWS V14.01,2013-08-10 12:10:00,
2013-08-10 07:15:00,69.8,65.4,30.06,NNE,31,3.0,7.0,86,0.00,,---,0.00,18.00,VWS V14.01,2013-08-10 12:15:00,
2013-08-10 07:20:00,69.9,65.5,30.06,NNW,346,4.0,7.0,86,0.00,,---,0.00,25.00,VWS V14.01,2013-08-10 12:20:00,
2013-08-10 07:25:00,70.0,65.6,30.06,NNW,340,3.0,7.0,86,0.00,,---,0.00,33.00,VWS V14.01,2013-08-10 12:25:00,
2013-08-10 07:30:00,70.1,65.7,30.06,NNW,343,3.0,7.0,86,0.00,,---,0.00,42.00,VWS V14.01,2013-08-10 12:30:00,
2013-08-10 07:35:00,70.2,65.8,30.06,NNW,334,4.0,6.0,86,0.00,,---,0.00,56.00,VWS V14.01,2013-08-10 12:35:00,
2013-08-10 07:40:00,70.3,65.9,30.06,North,350,7.0,7.0,86,0.00,,---,0.00,69.00,VWS V14.01,2013-08-10 12:40:00,
2013-08-10 07:45:00,70.5,66.1,30.06,NNW,341,7.0,7.0,86,0.00,,---,0.00,83.00,VWS V14.01,2013-08-10 12:45:00,
2013-08-10 07:50:00,70.7,66.0,30.06,North,360,6.0,9.0,85,0.00,,---,0.00,100.00,VWS V14.01,2013-08-10 12:50:00,
2013-08-10 07:55:00,71.0,66.3,30.06,North,355,4.0,11.0,85,0.00,,---,0.00,120.00,VWS V14.01,2013-08-10 12:55:00,
2013-08-10 08:00:00,71.2,66.1,30.06,NNE,13,5.0,11.0,84,0.00,,---,0.00,137.00,VWS V14.01,2013-08-10 13:00:00,
2013-08-10 08:05:00,71.4,66.0,30.07,NNW,342,10.0,13.0,83,0.00,,---,0.00,156.00,VWS V14.01,2013-08-10 13:05:00,
2013-08-10 08:10:00,71.5,65.4,30.07,NW,323,6.0,13.0,81,0.00,,---,0.00,176.00,VWS V14.01,2013-08-10 13:10:00,
2013-08-10 08:15:00,71.9,65.4,30.07,NNW,343,8.0,13.0,80,0.00,,---,0.00,197.00,VWS V14.01,2013-08-10 13:15:00,
2013-08-10 08:20:00,72.2,65.7,30.07,NNW,348,8.0,13.0,80,0.00,,---,0.00,214.00,VWS V14.01,2013-08-10 13:20:00,
2013-08-10 08:25:00,72.4,65.5,30.08,NNE,32,13.0,13.0,79,0.00,,---,0.00,227.00,VWS V14.01,2013-08-10 13:25:00,
2013-08-10 08:30:00,72.6,65.0,30.08,NNW,340,7.0,14.0,77,0.00,,---,0.00,246.00,VWS V14.01,2013-08-10 13:30:00,
2013-08-10 08:35:00,73.0,65.4,30.08,NNE,29,5.0,11.0,77,0.00,,---,0.00,264.00,VWS V14.01,2013-08-10 13:35:00,
2013-08-10 08:40:00,73.3,64.9,30.08,NNW,338,4.0,13.0,75,0.00,,---,0.00,281.00,VWS V14.01,2013-08-10 13:40:00,
2013-08-10 08:45:00,73.7,65.3,30.08,North,349,6.0,13.0,75,0.00,,---,0.00,301.00,VWS V14.01,2013-08-10 13:45:00,
2013-08-10 08:50:00,74.1,65.7,30.08,NNW,333,7.0,13.0,75,0.00,,---,0.00,316.00,VWS V14.01,2013-08-10 13:50:00,
2013-08-10 08:55:00,74.1,65.7,30.09,NNW,333,7.0,13.0,75,0.00,,---,0.00,339.00,VWS V14.01,2013-08-10 13:55:00,
2013-08-10 09:00:00,74.1,65.7,30.08,North,351,7.0,13.0,75,0.00,,---,0.00,190.00,VWS V14.01,2013-08-10 14:00:00,
2013-08-10 09:05:00,74.1,64.9,30.09,NW,325,6.0,10.0,73,0.00,,---,0.00,387.00,VWS V14.01,2013-08-10 14:05:00,
2013-08-10 09:10:00,74.3,64.3,30.09,North,355,7.0,12.0,71,0.00,,---,0.00,323.00,VWS V14.01,2013-08-10 14:10:00,
2013-08-10 09:15:00,74.5,64.5,30.09,NNW,338,7.0,12.0,71,0.00,,---,0.00,144.00,VWS V14.01,2013-08-10 14:15:00,
2013-08-10 09:20:00,74.7,64.7,30.09,North,355,5.0,12.0,71,0.00,,---,0.00,427.00,VWS V14.01,2013-08-10 14:20:00,
2013-08-10 09:25:00,75.0,65.0,30.09,WNW,292,4.0,12.0,71,0.00,,---,0.00,436.00,VWS V14.01,2013-08-10 14:25:00,
2013-08-10 09:30:00,75.2,64.8,30.09,NNW,346,8.0,12.0,70,0.00,,---,0.00,454.00,VWS V14.01,2013-08-10 14:30:00,
2013-08-10 09:35:00,75.5,64.6,30.09,North,355,7.0,12.0,69,0.00,,---,0.00,454.00,VWS V14.01,2013-08-10 14:35:00,
2013-08-10 09:40:00,76.0,64.7,30.09,NW,309,7.0,12.0,68,0.00,,---,0.00,469.00,VWS V14.01,2013-08-10 14:40:00,
2013-08-10 09:45:00,76.2,64.4,30.09,North,355,9.0,12.0,67,0.00,,---,0.00,494.00,VWS V14.01,2013-08-10 14:45:00,
2013-08-10 09:50:00,76.4,64.6,30.09,NNW,327,9.0,12.0,67,0.00,,---,0.00,506.00,VWS V14.01,2013-08-10 14:50:00,
2013-08-10 09:55:00,76.8,65.0,30.09,NW,315,9.0,12.0,67,0.00,,---,0.00,524.00,VWS V14.01,2013-08-10 14:55:00,
2013-08-10 10:00:00,76.9,64.7,30.09,NW,318,5.0,12.0,66,0.00,,---,0.00,543.00,VWS V14.01,2013-08-10 15:00:00,
2013-08-10 10:05:00,77.2,65.0,30.09,NW,316,6.0,11.0,66,0.00,,---,0.00,561.00,VWS V14.01,2013-08-10 15:05:00,
2013-08-10 10:10:00,77.4,64.7,30.09,NW,319,8.0,11.0,65,0.00,,---,0.00,577.00,VWS V14.01,2013-08-10 15:10:00,
2013-08-10 10:15:00,77.6,64.9,30.09,NNW,329,7.0,12.0,65,0.00,,---,0.00,592.00,VWS V14.01,2013-08-10 15:15:00,
2013-08-10 10:20:00,77.9,65.2,30.09,NNE,22,4.0,12.0,65,0.00,,---,0.00,603.00,VWS V14.01,2013-08-10 15:20:00,
2013-08-10 10:25:00,78.3,65.1,30.09,NW,325,7.0,12.0,64,0.00,,---,0.00,619.00,VWS V14.01,2013-08-10 15:25:00,
2013-08-10 10:30:00,78.6,65.4,30.09,NNW,338,3.0,12.0,64,0.00,,---,0.00,629.00,VWS V14.01,2013-08-10 15:30:00,
2013-08-10 10:35:00,78.9,65.2,30.09,North,355,4.0,10.0,63,0.00,,---,0.00,647.00,VWS V14.01,2013-08-10 15:35:00,
2013-08-10 10:40:00,79.1,65.4,30.09,NNW,342,7.0,10.0,63,0.00,,---,0.00,663.00,VWS V14.01,2013-08-10 15:40:00,
2013-08-10 10:45:00,79.6,65.9,30.09,North,11,4.0,11.0,63,0.00,,---,0.00,680.00,VWS V14.01,2013-08-10 15:45:00,
2013-08-10 10:50:00,80.2,66.0,30.09,NW,313,4.0,11.0,62,0.00,,---,0.00,691.00,VWS V14.01,2013-08-10 15:50:00,
2013-08-10 10:55:00,80.4,65.7,30.09,ENE,72,4.0,11.0,61,0.00,,---,0.00,705.00,VWS V14.01,2013-08-10 15:55:00,
2013-08-10 11:00:00,80.2,65.5,30.09,NE,56,9.0,13.0,61,0.00,,---,0.00,717.00,VWS V14.01,2013-08-10 16:00:00,
2013-08-10 11:05:00,80.5,65.8,30.08,North,5,6.0,12.0,61,0.00,,---,0.00,731.00,VWS V14.01,2013-08-10 16:05:00,
2013-08-10 11:10:00,80.8,66.1,30.08,NNW,340,7.0,12.0,61,0.00,,---,0.00,744.00,VWS V14.01,2013-08-10 16:10:00,
2013-08-10 11:15:00,81.0,66.3,30.08,NNE,31,7.0,12.0,61,0.00,,---,0.00,758.00,VWS V14.01,2013-08-10 16:15:00,
2013-08-10 11:20:00,81.3,66.1,30.09,NNW,344,3.0,12.0,60,0.00,,---,0.00,765.00,VWS V14.01,2013-08-10 16:20:00,
2013-08-10 11:25:00,81.7,66.0,30.09,North,355,7.0,12.0,59,0.00,,---,0.00,777.00,VWS V14.01,2013-08-10 16:25:00,
2013-08-10 11:30:00,81.6,65.9,30.08,NE,36,5.0,12.0,59,0.00,,---,0.00,789.00,VWS V14.01,2013-08-10 16:30:00,
2013-08-10 11:35:00,81.8,66.1,30.09,NNW,340,4.0,10.0,59,0.00,,---,0.00,802.00,VWS V14.01,2013-08-10 16:35:00,
2013-08-10 11:40:00,81.8,66.1,30.08,NNW,338,3.0,10.0,59,0.00,,---,0.00,812.00,VWS V14.01,2013-08-10 16:40:00,
2013-08-10 11:45:00,81.9,66.2,30.08,NNE,13,3.0,11.0,59,0.00,,---,0.00,810.00,VWS V14.01,2013-08-10 16:45:00,
2013-08-10 11:50:00,82.3,66.6,30.08,North,5,5.0,12.0,59,0.00,,---,0.00,830.00,VWS V14.01,2013-08-10 16:50:00,
2013-08-10 11:55:00,82.3,66.6,30.08,NW,320,4.0,12.0,59,0.00,,---,0.00,842.00,VWS V14.01,2013-08-10 16:55:00,
2013-08-10 12:00:00,82.7,66.4,30.08,NE,55,7.0,12.0,58,0.00,,---,0.00,849.00,VWS V14.01,2013-08-10 17:00:00,
2013-08-10 12:05:00,82.7,66.4,30.08,NW,321,4.0,16.0,58,0.00,,---,0.00,861.00,VWS V14.01,2013-08-10 17:05:00,
2013-08-10 12:10:00,82.9,66.1,30.08,North,11,8.0,16.0,57,0.00,,---,0.00,874.00,VWS V14.01,2013-08-10 17:10:00,
2013-08-10 12:15:00,83.3,66.5,30.08,North,5,6.0,16.0,57,0.00,,---,0.00,891.00,VWS V14.01,2013-08-10 17:15:00,
2013-08-10 12:20:00,83.8,66.4,30.08,WNW,292,4.0,16.0,56,0.00,,---,0.00,914.00,VWS V14.01,2013-08-10 17:20:00,
2013-08-10 12:25:00,83.9,66.0,30.08,North,9,5.0,16.0,55,0.00,,---,0.00,921.00,VWS V14.01,2013-08-10 17:25:00,
2013-08-10 12:30:00,83.9,66.5,30.08,NNE,16,3.0,16.0,56,0.00,,---,0.00,960.00,VWS V14.01,2013-08-10 17:30:00,
2013-08-10 12:35:00,84.2,66.3,30.07,ENE,61,7.0,9.0,55,0.00,,---,0.00,974.00,VWS V14.01,2013-08-10 17:35:00,
2013-08-10 12:40:00,84.3,66.4,30.08,North,11,8.0,10.0,55,0.00,,---,0.00,977.00,VWS V14.01,2013-08-10 17:40:00,
2013-08-10 12:45:00,84.5,66.1,30.07,WNW,294,1.0,11.0,54,0.00,,---,0.00,990.00,VWS V14.01,2013-08-10 17:45:00,
2013-08-10 12:50:00,84.5,66.6,30.08,NNE,15,7.0,11.0,55,0.00,,---,0.00,1063.00,VWS V14.01,2013-08-10 17:50:00,
2013-08-10 12:55:00,84.8,66.3,30.08,NNE,13,6.0,14.0,54,0.00,,---,0.00,1069.00,VWS V14.01,2013-08-10 17:55:00,
2013-08-10 13:00:00,85.0,66.5,30.08,ENE,65,10.0,14.0,54,0.00,,---,0.00,1157.00,VWS V14.01,2013-08-10 18:00:00,
2013-08-10 13:05:00,85.5,66.4,30.08,NE,46,5.0,12.0,53,0.00,,---,0.00,1179.00,VWS V14.01,2013-08-10 18:05:00,
2013-08-10 13:10:00,86.1,66.4,30.07,NE,34,3.0,12.0,52,0.00,,---,0.00,1230.00,VWS V14.01,2013-08-10 18:10:00,
2013-08-10 13:15:00,86.4,66.7,30.07,NE,40,4.0,12.0,52,0.00,,---,0.00,308.00,VWS V14.01,2013-08-10 18:15:00,
2013-08-10 13:20:00,86.1,66.4,30.08,NE,34,5.0,12.0,52,0.00,,---,0.00,464.00,VWS V14.01,2013-08-10 18:20:00,
2013-08-10 13:25:00,85.7,66.1,30.07,North,360,3.0,12.0,52,0.00,,---,0.00,1178.00,VWS V14.01,2013-08-10 18:25:00,
2013-08-10 13:30:00,85.6,66.5,30.07,North,355,2.0,12.0,53,0.00,,---,0.00,408.00,VWS V14.01,2013-08-10 18:30:00,
2013-08-10 13:35:00,86.2,67.1,30.07,ENE,67,9.0,11.0,53,0.00,,---,0.00,1245.00,VWS V14.01,2013-08-10 18:35:00,
2013-08-10 13:40:00,85.9,66.2,30.07,NNE,28,6.0,11.0,52,0.00,,---,0.00,272.00,VWS V14.01,2013-08-10 18:40:00,
2013-08-10 13:45:00,85.3,66.2,30.07,North,5,4.0,12.0,53,0.00,,---,0.00,338.00,VWS V14.01,2013-08-10 18:45:00,
2013-08-10 13:50:00,85.4,66.3,30.06,North,350,8.0,12.0,53,0.00,,---,0.00,1109.00,VWS V14.01,2013-08-10 18:50:00,
2013-08-10 13:55:00,86.0,66.3,30.06,ENE,59,5.0,12.0,52,0.00,,---,0.00,1208.00,VWS V14.01,2013-08-10 18:55:00,
2013-08-10 14:00:00,86.2,66.5,30.06,NE,41,6.0,14.0,52,0.00,,---,0.00,1227.00,VWS V14.01,2013-08-10 19:00:00,
2013-08-10 14:05:00,86.5,66.2,30.06,East,81,1.0,8.0,51,0.00,,---,0.00,1176.00,VWS V14.01,2013-08-10 19:05:00,
2013-08-10 14:10:00,87.4,65.9,30.06,NNW,335,6.0,10.0,49,0.00,,---,0.00,281.00,VWS V14.01,2013-08-10 19:10:00,
2013-08-10 14:15:00,87.0,66.1,30.06,WNW,298,3.0,10.0,50,0.00,,---,0.00,385.00,VWS V14.01,2013-08-10 19:15:00,
2013-08-10 14:20:00,86.9,65.5,30.05,North,9,3.0,10.0,49,0.00,,---,0.00,1083.00,VWS V14.01,2013-08-10 19:20:00,
2013-08-10 14:25:00,87.4,66.5,30.05,ENE,60,11.0,12.0,50,0.00,,---,0.00,1201.00,VWS V14.01,2013-08-10 19:25:00,
2013-08-10 14:30:00,86.8,65.9,30.05,NE,44,6.0,14.0,50,0.00,,---,0.00,281.00,VWS V14.01,2013-08-10 19:30:00,
2013-08-10 14:35:00,85.9,65.1,30.05,NE,54,4.0,12.0,50,0.00,,---,0.00,271.00,VWS V14.01,2013-08-10 19:35:00,
2013-08-10 14:40:00,86.3,65.5,30.05,NE,48,10.0,12.0,50,0.00,,---,0.00,1118.00,VWS V14.01,2013-08-10 19:40:00,
2013-08-10 14:45:00,86.1,65.3,30.04,North,5,5.0,12.0,50,0.00,,---,0.00,302.00,VWS V14.01,2013-08-10 19:45:00,
2013-08-10 14:50:00,86.3,66.1,30.04,NNE,13,6.0,12.0,51,0.00,,---,0.00,346.00,VWS V14.01,2013-08-10 19:50:00,
2013-08-10 14:55:00,86.5,65.7,30.04,NE,55,5.0,13.0,50,0.00,,---,0.00,258.00,VWS V14.01,2013-08-10 19:55:00,
2013-08-10 15:00:00,86.5,65.7,30.04,NNW,348,5.0,14.0,50,0.00,,---,0.00,1063.00,VWS V14.01,2013-08-10 20:00:00,
2013-08-10 15:05:00,87.3,65.8,30.04,NE,38,6.0,9.0,49,0.00,,---,0.00,902.00,VWS V14.01,2013-08-10 20:05:00,
2013-08-10 15:10:00,87.7,66.2,30.03,ENE,70,7.0,11.0,49,0.00,,---,0.00,1021.00,VWS V14.01,2013-08-10 20:10:00,
2013-08-10 15:15:00,87.9,65.8,30.03,NE,53,6.0,19.0,48,0.00,,---,0.00,257.00,VWS V14.01,2013-08-10 20:15:00,
2013-08-10 15:20:00,87.6,66.1,30.03,East,87,8.0,19.0,49,0.00,,---,0.00,1062.00,VWS V14.01,2013-08-10 20:20:00,
2013-08-10 15:25:00,87.7,65.6,30.03,NW,324,7.0,19.0,48,0.00,,---,0.00,1039.00,VWS V14.01,2013-08-10 20:25:00,
2013-08-10 15:30:00,87.4,65.3,30.03,North,355,7.0,19.0,48,0.00,,---,0.00,264.00,VWS V14.01,2013-08-10 20:30:00,
2013-08-10 15:35:00,87.2,65.1,30.03,WSW,258,0.0,8.0,48,0.00,,---,0.00,1120.00,VWS V14.01,2013-08-10 20:35:00,
2013-08-10 15:40:00,87.6,65.5,30.03,NE,45,9.0,9.0,48,0.00,,---,0.00,390.00,VWS V14.01,2013-08-10 20:40:00,
2013-08-10 15:45:00,87.6,65.5,30.03,NE,46,6.0,10.0,48,0.00,,---,0.00,383.00,VWS V14.01,2013-08-10 20:45:00,
2013-08-10 15:50:00,87.5,65.4,30.02,North,355,5.0,10.0,48,0.00,,---,0.00,561.00,VWS V14.01,2013-08-10 20:50:00,
2013-08-10 15:55:00,88.1,65.3,30.02,West,269,5.0,10.0,47,0.00,,---,0.00,921.00,VWS V14.01,2013-08-10 20:55:00,
2013-08-10 16:00:00,89.0,65.6,30.02,SSE,163,3.0,10.0,46,0.00,,---,0.00,947.00,VWS V14.01,2013-08-10 21:00:00,
2013-08-10 16:05:00,90.0,65.8,30.02,North,5,10.0,10.0,45,0.00,,---,0.00,930.00,VWS V14.01,2013-08-10 21:05:00,
2013-08-10 16:10:00,88.7,65.3,30.02,NNE,24,8.0,13.0,46,0.00,,---,0.00,278.00,VWS V14.01,2013-08-10 21:10:00,
2013-08-10 16:15:00,87.3,65.2,30.01,NE,36,7.0,14.0,48,0.00,,---,0.00,218.00,VWS V14.01,2013-08-10 21:15:00,
2013-08-10 16:20:00,87.0,65.6,30.01,NE,43,5.0,14.0,49,0.00,,---,0.00,870.00,VWS V14.01,2013-08-10 21:20:00,
2013-08-10 16:25:00,87.4,65.3,30.01,NE,40,3.0,14.0,48,0.00,,---,0.00,758.00,VWS V14.01,2013-08-10 21:25:00,
2013-08-10 16:30:00,87.6,64.9,30.01,ESE,104,7.0,14.0,47,0.00,,---,0.00,248.00,VWS V14.01,2013-08-10 21:30:00,
2013-08-10 16:35:00,87.7,65.0,30.00,ESE,109,4.0,10.0,47,0.00,,---,0.00,821.00,VWS V14.01,2013-08-10 21:35:00,
2013-08-10 16:40:00,88.0,65.3,30.00,NNE,33,8.0,10.0,47,0.00,,---,0.00,132.00,VWS V14.01,2013-08-10 21:40:00,
2013-08-10 16:45:00,87.5,64.8,30.00,NNW,346,5.0,14.0,47,0.00,,---,0.00,754.00,VWS V14.01,2013-08-10 21:45:00,
2013-08-10 16:50:00,87.9,64.6,30.00,NW,306,2.0,14.0,46,0.00,,---,0.00,700.00,VWS V14.01,2013-08-10 21:50:00,
2013-08-10 16:55:00,88.4,64.4,30.00,NW,310,4.0,14.0,45,0.00,,---,0.00,687.00,VWS V14.01,2013-08-10 21:55:00,
2013-08-10 17:00:00,89.2,65.1,29.99,NNW,346,6.0,14.0,45,0.00,,---,0.00,680.00,VWS V14.01,2013-08-10 22:00:00,
2013-08-10 17:05:00,89.7,64.2,29.99,NNW,342,5.0,7.0,43,0.00,,---,0.00,652.00,VWS V14.01,2013-08-10 22:05:00,
2013-08-10 17:10:00,89.9,65.7,29.99,North,9,7.0,10.0,45,0.00,,---,0.00,645.00,VWS V14.01,2013-08-10 22:10:00,
2013-08-10 17:15:00,89.8,65.0,29.99,NE,43,3.0,10.0,44,0.00,,---,0.00,617.00,VWS V14.01,2013-08-10 22:15:00,
2013-08-10 17:20:00,89.3,64.6,29.99,NE,37,2.0,10.0,44,0.00,,---,0.00,589.00,VWS V14.01,2013-08-10 22:20:00,
2013-08-10 17:25:00,89.9,64.4,29.99,West,281,3.0,10.0,43,0.00,,---,0.00,568.00,VWS V14.01,2013-08-10 22:25:00,
2013-08-10 17:30:00,90.2,64.7,29.99,NNE,15,4.0,10.0,43,0.00,,---,0.00,552.00,VWS V14.01,2013-08-10 22:30:00,
2013-08-10 17:35:00,90.2,64.7,29.98,NNW,341,4.0,10.0,43,0.00,,---,0.00,534.00,VWS V14.01,2013-08-10 22:35:00,
2013-08-10 17:40:00,90.3,64.8,29.98,NE,50,5.0,10.0,43,0.00,,---,0.00,512.00,VWS V14.01,2013-08-10 22:40:00,
2013-08-10 17:45:00,90.1,64.6,29.98,North,9,4.0,10.0,43,0.00,,---,0.00,499.00,VWS V14.01,2013-08-10 22:45:00,
2013-08-10 17:50:00,89.5,64.1,29.98,NNE,26,3.0,10.0,43,0.00,,---,0.00,480.00,VWS V14.01,2013-08-10 22:50:00,
2013-08-10 17:55:00,89.1,64.4,29.98,NNE,22,3.0,10.0,44,0.00,,---,0.00,466.00,VWS V14.01,2013-08-10 22:55:00,
2013-08-10 18:00:00,89.2,65.1,29.98,NNW,327,10.0,11.0,45,0.00,,---,0.00,443.00,VWS V14.01,2013-08-10 23:00:00,
2013-08-10 18:05:00,89.3,64.6,29.98,NNE,31,9.0,11.0,44,0.00,,---,0.00,429.00,VWS V14.01,2013-08-10 23:05:00,
2013-08-10 18:10:00,89.0,64.9,29.97,NNE,22,6.0,11.0,45,0.00,,---,0.00,417.00,VWS V14.01,2013-08-10 23:10:00,
2013-08-10 18:15:00,89.2,65.1,29.97,North,5,10.0,12.0,45,0.00,,---,0.00,392.00,VWS V14.01,2013-08-10 23:15:00,
2013-08-10 18:20:00,88.9,64.8,29.97,North,5,5.0,12.0,45,0.00,,---,0.00,376.00,VWS V14.01,2013-08-10 23:20:00,
2013-08-10 18:25:00,88.6,64.6,29.97,NW,324,3.0,12.0,45,0.00,,---,0.00,362.00,VWS V14.01,2013-08-10 23:25:00,
2013-08-10 18:30:00,88.6,65.2,29.97,NNE,15,7.0,12.0,46,0.00,,---,0.00,343.00,VWS V14.01,2013-08-10 23:30:00,
2013-08-10 18:35:00,88.3,64.9,29.97,North,11,10.0,12.0,46,0.00,,---,0.00,327.00,VWS V14.01,2013-08-10 23:35:00,
2013-08-10 18:40:00,88.2,64.8,29.97,NNE,20,5.0,12.0,46,0.00,,---,0.00,311.00,VWS V14.01,2013-08-10 23:40:00,
2013-08-10 18:45:00,88.3,64.9,29.96,NNE,28,4.0,12.0,46,0.00,,---,0.00,295.00,VWS V14.01,2013-08-10 23:45:00,
2013-08-10 18:50:00,88.1,64.7,29.96,NE,49,6.0,12.0,46,0.00,,---,0.00,278.00,VWS V14.01,2013-08-10 23:50:00,
2013-08-10 18:55:00,87.7,64.4,29.96,ENE,57,10.0,12.0,46,0.00,,---,0.00,262.00,VWS V14.01,2013-08-10 23:55:00,
2013-08-10 19:00:00,87.6,64.9,29.96,ENE,59,3.0,12.0,47,0.00,,---,0.00,239.00,VWS V14.01,2013-08-11 00:00:00,
2013-08-10 19:05:00,87.6,64.3,29.96,NE,40,3.0,13.0,46,0.00,,---,0.00,221.00,VWS V14.01,2013-08-11 00:05:00,
2013-08-10 19:10:00,87.6,64.3,29.96,NE,39,6.0,13.0,46,0.00,,---,0.00,206.00,VWS V14.01,2013-08-11 00:10:00,
2013-08-10 19:15:00,87.6,64.9,29.96,NE,48,2.0,13.0,47,0.00,,---,0.00,183.00,VWS V14.01,2013-08-11 00:15:00,
2013-08-10 19:20:00,87.5,64.2,29.96,NE,44,8.0,13.0,46,0.00,,---,0.00,163.00,VWS V14.01,2013-08-11 00:20:00,
2013-08-10 19:25:00,87.3,64.0,29.96,NE,44,4.0,13.0,46,0.00,,---,0.00,142.00,VWS V14.01,2013-08-11 00:25:00,
2013-08-10 19:30:00,87.0,65.0,29.95,East,83,6.0,13.0,48,0.00,,---,0.00,125.00,VWS V14.01,2013-08-11 00:30:00,
2013-08-10 19:35:00,86.7,65.3,29.96,NE,45,4.0,10.0,49,0.00,,---,0.00,105.00,VWS V14.01,2013-08-11 00:35:00,
2013-08-10 19:40:00,86.6,65.2,29.96,NE,54,4.0,10.0,49,0.00,,---,0.00,88.00,VWS V14.01,2013-08-11 00:40:00,
2013-08-10 19:45:00,86.4,65.0,29.96,ENE,59,5.0,10.0,49,0.00,,---,0.00,74.00,VWS V14.01,2013-08-11 00:45:00,
2013-08-10 19:50:00,86.2,64.8,29.96,East,82,5.0,10.0,49,0.00,,---,0.00,60.00,VWS V14.01,2013-08-11 00:50:00,
2013-08-10 19:55:00,85.9,65.1,29.96,ESE,107,5.0,10.0,50,0.00,,---,0.00,46.00,VWS V14.01,2013-08-11 00:55:00,
2013-08-10 20:00:00,85.7,64.9,29.96,ENE,61,4.0,10.0,50,0.00,,---,0.00,35.00,VWS V14.01,2013-08-11 01:00:00,
2013-08-10 20:05:00,85.4,64.7,29.96,ENE,57,3.0,7.0,50,0.00,,---,0.00,25.00,VWS V14.01,2013-08-11 01:05:00,
2013-08-10 20:10:00,85.3,65.1,29.96,ENE,74,2.0,9.0,51,0.00,,---,0.00,18.00,VWS V14.01,2013-08-11 01:10:00,
2013-08-10 20:15:00,85.0,65.4,29.96,NE,55,2.0,9.0,52,0.00,,---,0.00,12.00,VWS V14.01,2013-08-11 01:15:00,
2013-08-10 20:20:00,84.7,65.1,29.96,East,81,3.0,9.0,52,0.00,,---,0.00,9.00,VWS V14.01,2013-08-11 01:20:00,
2013-08-10 20:25:00,84.3,64.8,29.96,ENE,67,3.0,9.0,52,0.00,,---,0.00,5.00,VWS V14.01,2013-08-11 01:25:00,
2013-08-10 20:30:00,84.0,65.1,29.96,ENE,66,2.0,9.0,53,0.00,,---,0.00,0.00,VWS V14.01,2013-08-11 01:30:00,
2013-08-10 20:35:00,83.7,64.8,29.96,East,88,2.0,6.0,53,0.00,,---,0.00,0.00,VWS V14.01,2013-08-11 01:35:00,
2013-08-10 20:40:00,83.3,64.9,29.96,ENE,65,2.0,6.0,54,0.00,,---,0.00,0.00,VWS V14.01,2013-08-11 01:40:00,
2013-08-10 20:45:00,83.0,65.2,29.96,East,80,2.0,6.0,55,0.00,,---,0.00,0.00,VWS V14.01,2013-08-11 01:45:00,
2013-08-10 20:50:00,82.7,64.9,29.97,ENE,66,1.0,6.0,55,0.00,,---,0.00,0.00,VWS V14.01,2013-08-11 01:50:00,
2013-08-10 20:55:00,82.4,64.6,29.97,East,88,2.0,6.0,55,0.00,,---,0.00,0.00,VWS V14.01,2013-08-11 01:55:00,
2013-08-10 21:00:00,82.2,65.0,29.97,East,100,5.0,6.0,56,0.00,,---,0.00,0.00,VWS V14.01,2013-08-11 02:00:00,
2013-08-10 21:05:00,81.8,65.1,29.97,East,99,1.0,6.0,57,0.00,,---,0.00,0.00,VWS V14.01,2013-08-11 02:05:00,
2013-08-10 21:10:00,81.5,64.8,29.98,East,99,3.0,6.0,57,0.00,,---,0.00,0.00,VWS V14.01,2013-08-11 02:10:00,
2013-08-10 21:15:00,81.2,65.0,29.98,ESE,103,3.0,6.0,58,0.00,,---,0.00,0.00,VWS V14.01,2013-08-11 02:15:00,
2013-08-10 21:20:00,80.9,65.2,29.98,East,89,2.0,6.0,59,0.00,,---,0.00,0.00,VWS V14.01,2013-08-11 02:20:00,
2013-08-10 21:25:00,80.6,65.0,29.99,East,99,3.0,6.0,59,0.00,,---,0.00,0.00,VWS V14.01,2013-08-11 02:25:00,
2013-08-10 21:30:00,80.3,65.2,29.99,East,89,3.0,6.0,60,0.00,,---,0.00,0.00,VWS V14.01,2013-08-11 02:30:00,
2013-08-10 21:35:00,80.0,64.9,29.99,East,80,2.0,3.0,60,0.00,,---,0.00,0.00,VWS V14.01,2013-08-11 02:35:00,
2013-08-10 21:40:00,79.7,65.1,29.99,East,88,3.0,5.0,61,0.00,,---,0.00,0.00,VWS V14.01,2013-08-11 02:40:00,
2013-08-10 21:45:00,79.5,64.9,29.99,East,81,2.0,5.0,61,0.00,,---,0.00,0.00,VWS V14.01,2013-08-11 02:45:00,
2013-08-10 21:50:00,79.3,65.2,29.99,ENE,78,2.0,5.0,62,0.00,,---,0.00,0.00,VWS V14.01,2013-08-11 02:50:00,
2013-08-10 21:55:00,79.1,65.0,30.00,ENE,73,3.0,5.0,62,0.00,,---,0.00,0.00,VWS V14.01,2013-08-11 02:55:00,
2013-08-10 22:00:00,78.9,65.2,30.00,ENE,57,2.0,5.0,63,0.00,,---,0.00,0.00,VWS V14.01,2013-08-11 03:00:00,
2013-08-10 22:05:00,78.7,65.1,30.00,ENE,72,2.0,5.0,63,0.00,,---,0.00,0.00,VWS V14.01,2013-08-11 03:05:00,
2013-08-10 22:10:00,78.6,65.0,30.01,East,88,3.0,5.0,63,0.00,,---,0.00,0.00,VWS V14.01,2013-08-11 03:10:00,
2013-08-10 22:15:00,78.5,65.3,30.01,ENE,61,4.0,6.0,64,0.00,,---,0.00,0.00,VWS V14.01,2013-08-11 03:15:00,
2013-08-10 22:20:00,78.5,65.3,30.01,East,80,2.0,8.0,64,0.00,,---,0.00,0.00,VWS V14.01,2013-08-11 03:20:00,
2013-08-10 22:25:00,78.5,65.3,30.02,ENE,68,4.0,8.0,64,0.00,,---,0.00,0.00,VWS V14.01,2013-08-11 03:25:00,
2013-08-10 22:30:00,78.4,65.2,30.02,East,87,3.0,8.0,64,0.00,,---,0.00,0.00,VWS V14.01,2013-08-11 03:30:00,
2013-08-10 22:36:00,78.2,65.5,30.02,ENE,66,5.0,6.0,65,0.00,,---,0.00,0.00,VWS V14.01,2013-08-11 03:36:00,
2013-08-10 22:41:00,78.1,65.4,30.02,East,87,3.0,7.0,65,0.00,,---,0.00,0.00,VWS V14.01,2013-08-11 03:41:00,
2013-08-10 22:46:00,77.9,65.6,30.02,East,94,2.0,7.0,66,0.00,,---,0.00,0.00,VWS V14.01,2013-08-11 03:46:00,
2013-08-10 22:51:00,77.8,65.5,30.02,East,90,5.0,7.0,66,0.00,,---,0.00,0.00,VWS V14.01,2013-08-11 03:51:00,
2013-08-10 22:56:00,77.7,65.4,30.02,ENE,78,3.0,7.0,66,0.00,,---,0.00,0.00,VWS V14.01,2013-08-11 03:56:00,
2013-08-10 23:01:00,77.6,65.8,30.03,ENE,62,3.0,7.0,67,0.00,,---,0.00,0.00,VWS V14.01,2013-08-11 04:01:00,
2013-08-10 23:06:00,77.4,65.6,30.03,East,90,3.0,7.0,67,0.00,,---,0.00,0.00,VWS V14.01,2013-08-11 04:06:00,
2013-08-10 23:11:00,77.3,65.5,30.03,East,85,2.0,7.0,67,0.00,,---,0.00,0.00,VWS V14.01,2013-08-11 04:11:00,
2013-08-10 23:16:00,77.1,65.7,30.03,ESE,105,5.0,7.0,68,0.00,,---,0.00,0.00,VWS V14.01,2013-08-11 04:16:00,
2013-08-10 23:21:00,76.9,65.5,30.03,ESE,107,3.0,8.0,68,0.00,,---,0.00,0.00,VWS V14.01,2013-08-11 04:21:00,
2013-08-10 23:26:00,76.7,65.3,30.03,ENE,78,2.0,8.0,68,0.00,,---,0.00,0.00,VWS V14.01,2013-08-11 04:26:00,
2013-08-10 23:31:00,76.6,65.7,30.03,East,80,3.0,5.0,69,0.00,,---,0.00,0.00,VWS V14.01,2013-08-11 04:31:00,
2013-08-10 23:36:00,76.4,65.5,30.03,ENE,67,2.0,8.0,69,0.00,,---,0.00,0.00,VWS V14.01,2013-08-11 04:36:00,
2013-08-10 23:41:00,76.3,65.8,30.03,East,84,3.0,8.0,70,0.00,,---,0.00,0.00,VWS V14.01,2013-08-11 04:41:00,
2013-08-10 23:46:00,76.2,65.7,30.03,East,87,2.0,8.0,70,0.00,,---,0.00,0.00,VWS V14.01,2013-08-11 04:46:00,
2013-08-10 23:51:00,76.2,65.7,30.03,NE,51,4.0,8.0,70,0.00,,---,0.00,0.00,VWS V14.01,2013-08-11 04:51:00,
2013-08-10 23:56:00,76.1,65.6,30.04,ENE,63,4.0,8.0,70,0.00,,---,0.00,0.00,VWS V14.01,2013-08-11 04:56:00,